Location: Newark
(13.6797°N, 8.5297°E)
Time: 20:32:24
(UTC+00:00)

Courier 1B Rocket - Pass Details

Date: 29 January 2020
Orbit: 920 x 1202 km, 28.2° (Epoch: 27 February)

Event Time Altitude Azimuth Distance (km) Brightness Sun altitude
Rises 18:09:01 0° 263° (W) 3,585 10.0 -11.2°
Reaches altitude 10° 18:13:34 10° 234° (SW) 2,610 8.5 -12.2°
Maximum altitude 18:15:52 12° 211° (SSW) 2,451 7.8 -12.8°
Drops below altitude 10° 18:18:11 10° 189° (S) 2,599 7.6 -13.3°
Sets 18:22:42 0° 160° (SSE) 3,552 7.9 -14.4°
